Weather History for PAWG - November, 2013

Change the Weather History Date:

Sunday, November 3, 2013

  Actual Average Record
Temperature  
Mean Temperature 36 °F -  
Max Temperature 39 °F 46 °F 65 °F (1949)
Min Temperature 33 °F 36 °F 16 °F (1973)
Degree Days  
Heating Degree Days 29    
Moisture  
Dew Point 29 °F    
Average Humidity 76    
Maximum Humidity 81    
Minimum Humidity 65    
Precipitation  
Precipitation 0.00 in - - ()
Sea Level Pressure  
Sea Level Pressure 30.09 in    
Wind  
Wind Speed 6 mph (SE)    
Max Wind Speed 12 mph    
Max Gust Speed -    
Visibility 10 miles    
Events      
Averages and records for this station are not official NWS values.
T = Trace of Precipitation, MM = Missing Value Source: NWS Daily Summary

Daily Weather History Graph

Daily Weather History Graph

Search for Another Location

Airport or City:

Trip Planner

Search our weather history database for the weather conditions in past years. The results will help you decide how hot, cold, wet, or windy it might be!

Date:

Astronomy

Nov. 03, 2013 Rise Set
Actual Time 7:03 AM AKST 4:01 PM AKST
Civil Twilight 6:22 AM AKST 4:42 PM AKST
Nautical Twilight 5:37 AM AKST 5:27 PM AKST
Astronomical Twilight 4:54 AM AKST 6:10 PM AKST
Moon 7:20 AM AKST (11/3) 4:14 PM AKST (11/3)
Length of Visible Light 10h 19m
Length of Day
8h 58m
New Moon, 0% of the Moon is Illuminated
Nov 3
New Moon
Nov 9
First Quarter
Nov 17
Full
Nov 25
Last Quarter
Dec 2
New

Hourly Weather History & Observations

Time (AKST) Temp. Windchill Dew Point Humidity Pressure Visibility Wind Dir Wind Speed Gust Speed Precip Events Conditions
12:16 AM 33.8 °F 27.7 °F 28.4 °F 81% 30.12 in 10.0 mi South 6.9 mph - N/A   Partly Cloudy
12:36 AM 35.6 °F 32.8 °F 30.2 °F 81% 30.12 in 10.0 mi SE 3.5 mph - N/A   Mostly Cloudy
12:56 AM 35.6 °F 31.7 °F 30.2 °F 81% 30.12 in 10.0 mi SE 4.6 mph - N/A   Overcast
1:16 AM 35.6 °F 29.2 °F 30.2 °F 81% 30.12 in 10.0 mi ESE 8.1 mph - N/A   Overcast
1:36 AM 35.6 °F 29.2 °F 30.2 °F 81% 30.11 in 10.0 mi ESE 8.1 mph - N/A   Overcast
1:56 AM 35.6 °F 30.7 °F 30.2 °F 81% 30.11 in 10.0 mi ESE 5.8 mph - N/A   Overcast
1:16 AM 35.6 °F 30.7 °F 30.2 °F 81% 30.11 in 10.0 mi SE 5.8 mph - N/A   Overcast
1:36 AM 35.6 °F 29.9 °F 30.2 °F 81% 30.11 in 10.0 mi SE 6.9 mph - N/A   Overcast
1:56 AM 35.6 °F 30.7 °F 30.2 °F 81% 30.11 in 10.0 mi SSE 5.8 mph - N/A   Mostly Cloudy
2:16 AM 35.6 °F 30.7 °F 30.2 °F 81% 30.11 in 10.0 mi ESE 5.8 mph - N/A   Overcast
2:36 AM 35.6 °F 29.9 °F 30.2 °F 81% 30.11 in 10.0 mi ESE 6.9 mph - N/A   Overcast
2:56 AM 35.6 °F 29.9 °F 30.2 °F 81% 30.11 in 10.0 mi ESE 6.9 mph - N/A   Overcast
3:16 AM 35.6 °F 28.6 °F 30.2 °F 81% 30.11 in 10.0 mi East 9.2 mph - N/A   Overcast
3:36 AM 35.6 °F 29.9 °F 30.2 °F 81% 30.11 in 10.0 mi SE 6.9 mph - N/A   Overcast
3:56 AM 35.6 °F 29.9 °F 30.2 °F 81% 30.11 in 10.0 mi SE 6.9 mph - N/A   Overcast
4:16 AM 35.6 °F 31.7 °F 28.4 °F 75% 30.10 in 10.0 mi SSE 4.6 mph - N/A   Overcast
4:36 AM 35.6 °F 30.7 °F 30.2 °F 81% 30.11 in 10.0 mi ESE 5.8 mph - N/A   Overcast
4:56 AM 35.6 °F 29.9 °F 30.2 °F 81% 30.10 in 10.0 mi East 6.9 mph - N/A   Overcast
5:16 AM 35.6 °F 29.9 °F 30.2 °F 81% 30.10 in 10.0 mi East 6.9 mph - N/A   Overcast
5:36 AM 35.6 °F 31.7 °F 30.2 °F 81% 30.10 in 10.0 mi East 4.6 mph - N/A   Overcast
5:56 AM 35.6 °F 29.2 °F 30.2 °F 81% 30.10 in 10.0 mi SE 8.1 mph - N/A   Overcast
6:16 AM 35.6 °F 30.7 °F 28.4 °F 75% 30.10 in 10.0 mi ESE 5.8 mph - N/A   Overcast
6:36 AM 33.8 °F 29.6 °F 28.4 °F 81% 30.10 in 10.0 mi ESE 4.6 mph - N/A   Overcast
6:56 AM 35.6 °F 30.7 °F 28.4 °F 75% 30.10 in 10.0 mi East 5.8 mph - N/A   Overcast
7:16 AM 33.8 °F 29.6 °F 28.4 °F 81% 30.10 in 10.0 mi ESE 4.6 mph - N/A   Overcast
7:36 AM 33.8 °F 28.6 °F 28.4 °F 81% 30.11 in 10.0 mi SE 5.8 mph - N/A   Overcast
7:56 AM 33.8 °F 30.8 °F 28.4 °F 81% 30.12 in 10.0 mi SSE 3.5 mph - N/A   Mostly Cloudy
8:16 AM 33.8 °F 30.8 °F 28.4 °F 81% 30.12 in 10.0 mi SE 3.5 mph - N/A   Mostly Cloudy
8:36 AM 33.8 °F 27.7 °F 28.4 °F 81% 30.11 in 10.0 mi East 6.9 mph - N/A   Mostly Cloudy
8:56 AM 35.6 °F 29.2 °F 28.4 °F 75% 30.11 in 10.0 mi East 8.1 mph - N/A   Mostly Cloudy
9:16 AM 35.6 °F 29.2 °F 28.4 °F 75% 30.12 in 10.0 mi East 8.1 mph - N/A   Mostly Cloudy
9:36 AM 35.6 °F 30.7 °F 30.2 °F 81% 30.12 in 10.0 mi ESE 5.8 mph - N/A   Mostly Cloudy
9:56 AM 35.6 °F 29.9 °F 28.4 °F 75% 30.12 in 10.0 mi SE 6.9 mph - N/A   Scattered Clouds
10:16 AM 35.6 °F 29.2 °F 30.2 °F 81% 30.12 in 10.0 mi SE 8.1 mph - N/A   Scattered Clouds
10:36 AM 37.4 °F 33.8 °F 30.2 °F 75% 30.12 in 10.0 mi SSE 4.6 mph - N/A   Scattered Clouds
10:56 AM 37.4 °F 34.9 °F 30.2 °F 75% 30.12 in 10.0 mi SSE 3.5 mph - N/A   Partly Cloudy
11:16 AM 37.4 °F 34.9 °F 30.2 °F 75% 30.13 in 10.0 mi South 3.5 mph - N/A   Partly Cloudy
11:36 AM 37.4 °F - 30.2 °F 75% 30.12 in 10.0 mi Calm Calm - N/A   Partly Cloudy
11:56 AM 37.4 °F - 30.2 °F 75% 30.12 in 10.0 mi Calm Calm - N/A   Partly Cloudy
12:16 PM 39.2 °F - 30.2 °F 70% 30.12 in 10.0 mi Calm Calm - N/A   Partly Cloudy
12:36 PM 39.2 °F - 30.2 °F 70% 30.12 in 10.0 mi Calm Calm - N/A   Partly Cloudy
12:56 PM 39.2 °F 37.0 °F 30.2 °F 70% 30.11 in 10.0 mi SE 3.5 mph - N/A   Clear
1:16 PM 39.2 °F 37.0 °F 30.2 °F 70% 30.10 in 10.0 mi ESE 3.5 mph - N/A   Clear
1:36 PM 39.2 °F - 30.2 °F 70% 30.10 in 10.0 mi Calm Calm - N/A   Clear
1:56 PM 39.2 °F - 30.2 °F 70% 30.10 in 10.0 mi Calm Calm - N/A   Clear
2:16 PM 39.2 °F - 30.2 °F 70% 30.10 in 10.0 mi Calm Calm - N/A   Clear
2:36 PM 39.2 °F - 30.2 °F 70% 30.10 in 10.0 mi Calm Calm - N/A   Clear
2:56 PM 39.2 °F - 30.2 °F 70% 30.10 in 10.0 mi Calm Calm - N/A   Clear
3:16 PM 39.2 °F - 30.2 °F 70% 30.09 in 10.0 mi Calm Calm - N/A   Clear
3:36 PM 39.2 °F - 30.2 °F 70% 30.09 in 10.0 mi Calm Calm - N/A   Clear
3:56 PM 37.4 °F - 28.4 °F 70% 30.08 in 10.0 mi Calm Calm - N/A   Clear
4:16 PM 35.6 °F 31.7 °F 28.4 °F 75% 30.08 in 10.0 mi SSE 4.6 mph - N/A   Clear
4:36 PM 35.6 °F 30.7 °F 28.4 °F 75% 30.07 in 10.0 mi SE 5.8 mph - N/A   Clear
4:56 PM 35.6 °F 29.2 °F 28.4 °F 75% 30.06 in 10.0 mi SSE 8.1 mph - N/A   Clear
5:16 PM 35.6 °F 29.2 °F 28.4 °F 75% 30.05 in 10.0 mi SSE 8.1 mph - N/A   Clear
5:36 PM 35.6 °F 29.9 °F 30.2 °F 81% 30.05 in 10.0 mi SSE 6.9 mph - N/A   Clear
5:56 PM 35.6 °F 29.2 °F 30.2 °F 81% 30.04 in 10.0 mi SE 8.1 mph - N/A   Clear
6:16 PM 35.6 °F 27.5 °F 28.4 °F 75% 30.03 in 10.0 mi ESE 11.5 mph - N/A   Clear
6:36 PM 37.4 °F 32.8 °F 30.2 °F 75% 30.04 in 10.0 mi SE 5.8 mph - N/A   Clear
6:56 PM 35.6 °F 30.7 °F 28.4 °F 75% 30.04 in 10.0 mi SSE 5.8 mph - N/A   Clear
7:16 PM 35.6 °F 30.7 °F 28.4 °F 75% 30.04 in 10.0 mi SE 5.8 mph - N/A   Clear
7:36 PM 35.6 °F - 28.4 °F 75% 30.04 in 10.0 mi Calm Calm - N/A   Clear
7:56 PM 35.6 °F - 28.4 °F 75% 30.04 in 10.0 mi Calm Calm - N/A   Clear
8:16 PM 35.6 °F 28.6 °F 28.4 °F 75% 30.03 in 10.0 mi ESE 9.2 mph - N/A   Clear
8:36 PM 37.4 °F 30.3 °F 28.4 °F 70% 30.03 in 10.0 mi East 10.4 mph - N/A   Clear
8:56 PM 37.4 °F 29.8 °F 28.4 °F 70% 30.03 in 10.0 mi ESE 11.5 mph - N/A   Clear
9:16 PM 37.4 °F 30.8 °F 28.4 °F 70% 30.03 in 10.0 mi ESE 9.2 mph - N/A   Clear
9:36 PM 35.6 °F 29.9 °F 28.4 °F 75% 30.03 in 10.0 mi SE 6.9 mph - N/A   Clear
9:56 PM 35.6 °F 28.6 °F 28.4 °F 75% 30.03 in 10.0 mi ESE 9.2 mph - N/A   Clear
10:16 PM 35.6 °F 27.5 °F 28.4 °F 75% 30.02 in 10.0 mi East 11.5 mph - N/A   Clear
10:36 PM 37.4 °F 29.8 °F 28.4 °F 70% 30.00 in 10.0 mi East 11.5 mph - N/A   Clear
10:56 PM 37.4 °F 31.4 °F 26.6 °F 65% 29.99 in 10.0 mi ESE 8.1 mph - N/A   Clear